Flag for Germany Weather past 2 weeks in Bochum, North Rhine-Westphalia, Germany

Now
50 °F

Passing clouds.


Feels Like: 44 °F
Forecast: 41 / 47 °F
Wind: 16 mph from Southwest

Location: Dortmund / Wickede

Current Time: Mar 29, 2015 at 1:38:24 AM

Latest Report: Mar 28, 2015 at 10:50 PM


Visibility: N/A

Pressure: 29.77 "Hg

Humidity: 82%

Dew point: 45 °F

Location of BochumLocation

Historic Weather in Bochum — Graph

°F

Bochum temperature yesterday

Maximum temperature yesterday: 55 °F (at 12:50 PM)
Minimum temperature yesterday: 34 °F (at 5:20 AM)
Average temperature yesterday: 47 °F

Past Weeks' High & Low Weather Summary

 TemperatureHumidityPressure
High61 °F (Mar 17, 2:50 PM)93% (Mar 14, 7:20 PM)30.36 "Hg (Mar 14, 7:20 PM)
Low28 °F (Mar 23, 5:20 AM)39% (Mar 17, 3:20 PM)29.62 "Hg (Mar 25, 5:50 AM)
Average43 °F75%30.09 "Hg
* Reported Mar 13 10:20 PM — Mar 28 10:50 PM, Bochum, Weather by CustomWeather, © 2015

Note: Actual official high and low records may vary slightly from our data, if they occured in-between our weather recording intervals... More about our weather records

Advertising

Bochum weather history for previous 24 hours

 ConditionsComfort  
Time TempWeatherWind HumidityBarometerVisibility
10:50 PM
Sat, Mar 28
50 °FPassing clouds.16 mph82%29.77 "HgN/A
10:20 PM50 °FPassing clouds.17 mph82%29.77 "HgN/A
9:50 PM50 °FLight rain. Passing clouds.17 mph82%29.77 "HgN/A
9:20 PM48 °FLight rain. Passing clouds.17 mph87%29.80 "HgN/A
8:50 PM50 °FPassing clouds.17 mph82%29.80 "HgN/A
8:20 PM50 °FPassing clouds.14 mph76%29.83 "HgN/A
7:50 PM48 °FPassing clouds.15 mph82%29.86 "HgN/A
7:20 PM48 °FPassing clouds.16 mph82%29.86 "HgN/A
6:50 PM48 °FPartly sunny.17 mph82%29.86 "HgN/A
6:20 PM48 °FPartly sunny.16 mph82%29.86 "HgN/A
5:50 PM48 °FPartly sunny.16 mph76%29.86 "HgN/A
5:20 PM48 °FPartly sunny.16 mph76%29.89 "HgN/A
4:50 PM48 °FPartly sunny.16 mph76%29.89 "HgN/A
4:20 PM48 °FPartly sunny.16 mph76%29.92 "HgN/A
3:50 PM48 °FPartly sunny.17 mph76%29.92 "HgN/A
3:20 PM50 °FPartly sunny.14 mph71%29.92 "HgN/A
2:50 PM50 °FLight rain. Partly sunny.16 mph67%29.95 "HgN/A
2:20 PM50 °FSprinkles. Partly sunny.15 mph62%29.98 "HgN/A
1:50 PM52 °FSprinkles. Scattered clouds.16 mph50%29.98 "HgN/A
1:20 PM52 °FPassing clouds.15 mph50%29.98 "HgN/A
12:50 PM55 °FPassing clouds.15 mph44%29.98 "HgN/A
12:20 PM54 °FPassing clouds.16 mph44%30.01 "HgN/A
11:50 AM52 °FPartly sunny.15 mph47%30.04 "HgN/A
11:20 AM52 °FPassing clouds.15 mph50%30.04 "HgN/A
10:50 AM50 °FPassing clouds.12 mph54%30.07 "HgN/A
10:20 AM48 °FSunny.10 mph58%30.09 "Hg10 mi
9:50 AM46 °FPassing clouds.12 mph62%30.09 "HgN/A
9:20 AM45 °FPassing clouds.8 mph66%30.12 "HgN/A
8:50 AM43 °FSunny.12 mph76%30.12 "Hg10 mi
8:20 AM41 °FSunny.9 mph76%30.12 "Hg10 mi
7:50 AM39 °FSunny.9 mph81%30.12 "Hg10 mi
7:20 AM36 °FSunny.8 mph87%30.15 "Hg10 mi
6:50 AM34 °FPassing clouds.7 mph87%30.15 "HgN/A
6:20 AM34 °FPassing clouds.6 mph87%30.15 "HgN/A
5:50 AM34 °FPassing clouds.9 mph93%30.15 "HgN/A
5:20 AM34 °FOvercast.8 mph87%30.15 "HgN/A
Weather by CustomWeather, © 2015

See weather overviewHow to use our weather pages